Regional Weather Roundup
Issued by NWS

Home | Current Version | Previous Version | Graphics & Text | Print | Product List | Glossary On
Versions: 1 2 3 4 5 6 7 8 9 10 11 12 13 14 15 16 17 18 19 20 21 22 23 24 25 26 27 28 29 30 31 32 33 34 35 36 37 38 39 40 41 42 43 44 45 46 47 48 49 50
312
ASUS43 KFSD 251010
RWRSD

WEATHER ROUNDUP FOR SOUTH DAKOTA
NATIONAL WEATHER SERVICE SIOUX FALLS SD
500 AM CDT SUN SEP 25 2016

NOTE: "FAIR" INDICATES FEW OR NO CLOUDS BELOW 12,000 FEET WITH NO
SIGNIFICANT WEATHER AND/OR OBSTRUCTIONS TO VISIBILITY.


SDZ001>005-009-010-012>017-251100-
NORTHWEST AND NORTH CENTRAL SOUTH DAKOTA

CITY           SKY/WX    TMP DP  RH WIND       PRES   REMARKS
BUFFALO          N/A     49  43  80 NW25      30.08R
FAITH            N/A     51  44  77 NW32G48   30.03S
MOBRIDGE       CLOUDY    56  47  71 NW29G43   29.85R
$$

SDZ012>016-024>037-041>051-057-063-072>074-251100-
SOUTHWEST AND SOUTH CENTRAL SOUTH DAKOTA

CITY           SKY/WX    TMP DP  RH WIND       PRES   REMARKS
RAPID CTY ARPT PTCLDY    52  40  63 NW30G38   30.17S
PIERRE         CLOUDY    57  43  59 NW35G46   29.96R
CUSTER         CLOUDY    43  32  65 NW16G29   30.22R
ELLSWORTH AFB  PTCLDY    51  40  67 NW28G38   30.16S
PHILIP         CLOUDY    55  45  68 NW24G33   30.10R
PINE RIDGE     CLEAR     49  43  80 NW10      30.20R
WINNER         LGT RAIN  59  44  57 NW24G33   30.05R
$$

SDZ004>011-016>023-039-040-251100-
NORTHEAST SOUTH DAKOTA

CITY           SKY/WX    TMP DP  RH WIND       PRES   REMARKS
ABERDEEN       CLOUDY    57  50  77 SW18G28   29.80F
WATERTOWN      CLEAR     52  46  80 SW13      29.89S
BROOKINGS      CLEAR     51  45  79 SW10      29.93F
SISSETON         N/A     55  46  71 SW13      29.82R
$$

SDZ017-020-022-023-036>040-048>070-251100-
SOUTHEAST SOUTH DAKOTA

CITY           SKY/WX    TMP DP  RH WIND       PRES   REMARKS
SIOUX FALLS    CLEAR     55  46  71 VRB7      29.98R
HURON          MOCLDY    55  48  77 SW10      29.92S
CHAMBERLAIN    CLOUDY    60  47  63 W20G30    30.00R
MITCHELL       CLEAR     55  45  68 W13       29.98R
YANKTON        CLEAR     55  45  67 W13       30.01S
$$

ABBREVIATIONS USED IN REMARKS
   TC - TEMPERATURE IN CELSIUS
  WCI - WIND CHILL INDEX
   HX - HEAT INDEX
  VSB - VISIBILITY





USA.gov is the U.S. government's official web portal to all federal, state and local government web resources and services.